Location: Castillon
(43.0896°N, 0.2156°E)
Time: 20:11:57
(UTC+00:00)

Cosmos 1674 - Pass Details

Date: 16 June 2021
Orbit: 494 x 514 km, 82.5° (Epoch: 01 August)

Event Time Altitude Azimuth Distance (km) Brightness Sun altitude
Exits shadow 20:22:18 - 128° (SE) 1,796 4.7 -6.8°
Reaches altitude 10° 20:22:41 10° 124° (SE) 1,697 4.6 -6.9°
Maximum altitude 20:24:54 15° 87° (E) 1,393 4.5 -7.2°
Drops below altitude 10° 20:27:09 10° 50° (NE) 1,702 5.3 -7.5°
Sets 20:29:55 0° 27° (NNE) 2,589 6.5 -7.9°
